Location: Oberkirch
(48.5323°N, 8.0787°E)
Time: 05:23:59
(UTC+00:00)

Tiros 1 - Pass Details

Date: 23 February 2026
Orbit: 618 x 650 km, 48.4° (Epoch: 13 March)

Event Time Altitude Azimuth Distance (km) Brightness Sun altitude
Rises 10:09:36 0° 281° (W) 2,909 10.2 28.3°
Reaches altitude 10° 10:11:56 10° 279° (W) 1,996 9.4 28.5°
Maximum altitude 10:16:29 71° 197° (SSW) 658 8.0 28.8°
Drops below altitude 10° 10:21:01 10° 113° (ESE) 1,979 10.4 29.1°
Sets 10:23:19 0° 111° (ESE) 2,882 11.1 29.3°
